Location: Hamilton
(37.7830°S, 175.2830°E)
Time: 18:17:06
(UTC+13:00)

SeaSat 1 - Pass Details

Date: 24 January 2019
Orbit: 744 x 748 km, 108.0° (Epoch: 16 February)

Event Time Altitude Azimuth Distance (km) Brightness Sun altitude
Rises 23:37:13 0° 156° (SSE) 3,219 6.2 -27.0°
Reaches altitude 10° 23:39:30 10° 156° (SSE) 2,288 5.4 -27.3°
Enters shadow 23:44:00 73° 163° (SSE) 790 2.5 -27.7°
